• In Deutschland
  • Länderverzeichnis
  • Für 7 Tage
  • Wassertemperatur
  • Satellitenkarten
  • Wetterkarte
  • Widgets
  • user-avatar
    Anmelden

    Stündliche Wetter Pustosh

    Heute, 23 Juni, Samstag

    Zeit Temperatur Niederschläge Wind Luftdruck Luftfeuchtigkeit
    00:00 +9°C° 0 mm 2 m/S 754 mmHg 89%
    01:00 +9°C° 0 mm 2 m/S 754 mmHg 93%
    02:00 +8°C° 0 mm 1 m/S 754 mmHg 98%
    03:00 +8°C° 0 mm 2 m/S 754 mmHg 95%
    04:00 +9°C° 0 mm 2 m/S 754 mmHg 93%
    05:00 +9°C° 0 mm 2 m/S 755 mmHg 90%
    06:00 +12°C° 0 mm 2 m/S 755 mmHg 82%
    07:00 +14°C° 0 mm 2 m/S 755 mmHg 74%
    08:00 +16°C° 0 mm 2 m/S 755 mmHg 65%
    09:00 +17°C° 0 mm 2 m/S 755 mmHg 60%
    10:00 +18°C° 0 mm 2 m/S 755 mmHg 55%
    11:00 +18°C° 0 mm 2 m/S 755 mmHg 51%
    12:00 +19°C° 0 mm 2 m/S 755 mmHg 49%
    13:00 +19°C° 0 mm 2 m/S 755 mmHg 48%
    14:00 +20°C° 0 mm 2 m/S 754 mmHg 47%
    15:00 +20°C° 0 mm 2 m/S 754 mmHg 49%
    16:00 +19°C° 0 mm 2 m/S 754 mmHg 51%
    17:00 +20°C° 0 mm 1 m/S 754 mmHg 53%
    18:00 +19°C° 0 mm 1 m/S 754 mmHg 61%
    19:00 +18°C° 0 mm 1 m/S 753 mmHg 69%
    20:00 +16°C° 0 mm 1 m/S 753 mmHg 77%
    21:00 +15°C° 0 mm 1 m/S 753 mmHg 79%
    22:00 +14°C° 0 mm 1 m/S 753 mmHg 82%
    23:00 +12°C° 0 mm 0 m/S 753 mmHg 84%

    Morgen, 24 Juni, Sonntag

    Zeit Temperatur Niederschläge Wind Luftdruck Luftfeuchtigkeit
    00:00 +13°C° 0,1 mm 1 m/S 752 mmHg 85%
    01:00 +13°C° 0,1 mm 1 m/S 752 mmHg 85%
    02:00 +13°C° 0,1 mm 1 m/S 752 mmHg 86%
    03:00 +13°C° 0,3 mm 2 m/S 751 mmHg 88%
    04:00 +13°C° 0,3 mm 2 m/S 751 mmHg 89%
    05:00 +12°C° 0,3 mm 2 m/S 751 mmHg 91%
    06:00 +11°C° 0,3 mm 3 m/S 750 mmHg 91%
    07:00 +11°C° 0,3 mm 3 m/S 750 mmHg 91%
    08:00 +11°C° 0,3 mm 4 m/S 750 mmHg 91%
    09:00 +12°C° 0,5 mm 4 m/S 749 mmHg 90%
    10:00 +12°C° 0,5 mm 4 m/S 749 mmHg 90%
    11:00 +12°C° 0,5 mm 4 m/S 749 mmHg 89%
    12:00 +12°C° 2,7 mm 4 m/S 749 mmHg 91%
    13:00 +12°C° 2,7 mm 4 m/S 749 mmHg 94%
    14:00 +10°C° 2,7 mm 5 m/S 748 mmHg 97%
    15:00 +12°C° 1,3 mm 4 m/S 749 mmHg 97%
    16:00 +12°C° 1,3 mm 4 m/S 749 mmHg 97%
    17:00 +12°C° 1,3 mm 4 m/S 749 mmHg 97%
    18:00 +11°C° 0,3 mm 4 m/S 749 mmHg 97%
    19:00 +11°C° 0,3 mm 4 m/S 749 mmHg 96%
    20:00 +10°C° 0,3 mm 4 m/S 750 mmHg 96%
    21:00 +9°C° 0,2 mm 5 m/S 750 mmHg 96%
    22:00 +9°C° 0,2 mm 5 m/S 750 mmHg 96%
    23:00 +8°C° 0,2 mm 5 m/S 751 mmHg 96%

    übermorgen, 25 Juni, Montag

    Zeit Temperatur Niederschläge Wind Luftdruck Luftfeuchtigkeit
    00:00 +8°C° 0 mm 5 m/S 751 mmHg 96%
    01:00 +8°C° 0 mm 4 m/S 751 mmHg 96%
    02:00 +8°C° 0 mm 4 m/S 752 mmHg 96%
    03:00 +8°C° 0 mm 4 m/S 752 mmHg 96%
    04:00 +8°C° 0 mm 4 m/S 752 mmHg 96%
    05:00 +8°C° 0 mm 4 m/S 752 mmHg 95%
    06:00 +10°C° 0 mm 4 m/S 753 mmHg 89%
    07:00 +12°C° 0 mm 4 m/S 753 mmHg 83%
    08:00 +13°C° 0 mm 4 m/S 753 mmHg 77%
    09:00 +14°C° 0 mm 4 m/S 754 mmHg 70%
    10:00 +17°C° 0 mm 4 m/S 754 mmHg 64%
    11:00 +18°C° 0 mm 4 m/S 754 mmHg 57%
    12:00 +19°C° 0,1 mm 4 m/S 754 mmHg 58%
    13:00 +19°C° 0,1 mm 4 m/S 754 mmHg 58%
    14:00 +20°C° 0,1 mm 3 m/S 755 mmHg 58%
    15:00 +19°C° 0,5 mm 3 m/S 755 mmHg 65%
    16:00 +19°C° 0,5 mm 3 m/S 755 mmHg 72%
    17:00 +18°C° 0,5 mm 3 m/S 755 mmHg 78%
    18:00 +17°C° 0,3 mm 2 m/S 756 mmHg 83%
    19:00 +16°C° 0,3 mm 2 m/S 756 mmHg 88%
    20:00 +15°C° 0,3 mm 2 m/S 756 mmHg 93%
    21:00 +14°C° 0 mm 2 m/S 757 mmHg 94%
    22:00 +13°C° 0 mm 2 m/S 757 mmHg 95%
    23:00 +12°C° 0 mm 2 m/S 757 mmHg 97%

    26 Juni, Dienstag

    Zeit Temperatur Niederschläge Wind Luftdruck Luftfeuchtigkeit
    00:00 +11°C° 0 mm 1 m/S 758 mmHg 97%
    01:00 +11°C° 0 mm 1 m/S 758 mmHg 97%
    02:00 +11°C° 0 mm 1 m/S 759 mmHg 97%
    03:00 +10°C° 0 mm 2 m/S 759 mmHg 97%
    04:00 +10°C° 0 mm 2 m/S 759 mmHg 97%
    05:00 +12°C° 0 mm 2 m/S 759 mmHg 97%
    06:00 +13°C° 0 mm 2 m/S 760 mmHg 93%
    07:00 +15°C° 0 mm 2 m/S 760 mmHg 88%
    08:00 +16°C° 0 mm 2 m/S 760 mmHg 84%
    09:00 +17°C° 0,2 mm 2 m/S 761 mmHg 79%
    10:00 +19°C° 0,2 mm 2 m/S 761 mmHg 73%
    11:00 +20°C° 0,2 mm 2 m/S 761 mmHg 68%
    12:00 +20°C° 0,6 mm 2 m/S 761 mmHg 69%
    13:00 +21°C° 0,6 mm 2 m/S 761 mmHg 69%
    14:00 +21°C° 0,6 mm 2 m/S 761 mmHg 70%
    15:00 +22°C° 0,6 mm 1 m/S 761 mmHg 70%
    16:00 +22°C° 0,6 mm 1 m/S 761 mmHg 71%
    17:00 +22°C° 0,6 mm 1 m/S 761 mmHg 71%
    18:00 +21°C° 0,2 mm 1 m/S 761 mmHg 77%
    19:00 +19°C° 0,2 mm 1 m/S 762 mmHg 82%
    20:00 +18°C° 0,2 mm 1 m/S 762 mmHg 87%
    21:00 +16°C° 0 mm 1 m/S 762 mmHg 88%
    22:00 +15°C° 0 mm 1 m/S 763 mmHg 90%
    23:00 +13°C° 0 mm 0 m/S 763 mmHg 92%

    27 Juni, Mittwoch

    Zeit Temperatur Niederschläge Wind Luftdruck Luftfeuchtigkeit
    00:00 +12°C° 0 mm 0 m/S 763 mmHg 92%
    01:00 +12°C° 0 mm 0 m/S 763 mmHg 92%
    02:00 +12°C° 0 mm 0 m/S 763 mmHg 93%
    03:00 +12°C° 0 mm 0 m/S 763 mmHg 92%
    04:00 +13°C° 0 mm 0 m/S 764 mmHg 92%
    05:00 +14°C° 0 mm 1 m/S 764 mmHg 91%
    06:00 +16°C° 0 mm 1 m/S 764 mmHg 85%
    07:00 +19°C° 0 mm 1 m/S 764 mmHg 78%
    08:00 +22°C° 0 mm 1 m/S 764 mmHg 71%
    09:00 +23°C° 0 mm 1 m/S 764 mmHg 64%
    10:00 +25°C° 0 mm 1 m/S 764 mmHg 57%
    11:00 +27°C° 0 mm 1 m/S 764 mmHg 50%
    12:00 +27°C° 0 mm 1 m/S 764 mmHg 48%
    13:00 +28°C° 0 mm 1 m/S 764 mmHg 46%
    14:00 +28°C° 0 mm 1 m/S 764 mmHg 44%
    15:00 +27°C° 0 mm 1 m/S 764 mmHg 47%
    16:00 +27°C° 0 mm 1 m/S 764 mmHg 51%
    17:00 +26°C° 0 mm 1 m/S 764 mmHg 54%
    18:00 +25°C° 0 mm 1 m/S 764 mmHg 61%
    19:00 +23°C° 0 mm 2 m/S 764 mmHg 67%
    20:00 +21°C° 0 mm 2 m/S 764 mmHg 74%
    21:00 +19°C° 0 mm 2 m/S 765 mmHg 77%
    22:00 +18°C° 0 mm 2 m/S 765 mmHg 79%
    23:00 +17°C° 0 mm 2 m/S 765 mmHg 82%

    28 Juni, Donnerstag

    Zeit Temperatur Niederschläge Wind Luftdruck Luftfeuchtigkeit
    00:00 +16°C° 0 mm 2 m/S 765 mmHg 84%
    01:00 +16°C° 0 mm 2 m/S 765 mmHg 85%
    02:00 +15°C° 0 mm 2 m/S 766 mmHg 87%
    03:00 +15°C° 0 mm 2 m/S 766 mmHg 86%
    04:00 +16°C° 0 mm 2 m/S 766 mmHg 84%
    05:00 +16°C° 0 mm 2 m/S 766 mmHg 83%
    06:00 +18°C° 0 mm 2 m/S 766 mmHg 77%
    07:00 +20°C° 0 mm 2 m/S 766 mmHg 70%
    08:00 +21°C° 0 mm 2 m/S 766 mmHg 64%
    09:00 +24°C° 0 mm 3 m/S 766 mmHg 58%
    10:00 +26°C° 0 mm 3 m/S 766 mmHg 52%
    11:00 +27°C° 0 mm 3 m/S 765 mmHg 46%
    12:00 +28°C° 0 mm 3 m/S 765 mmHg 44%
    13:00 +28°C° 0 mm 3 m/S 765 mmHg 43%
    14:00 +29°C° 0 mm 3 m/S 764 mmHg 41%
    15:00 +28°C° 0 mm 3 m/S 764 mmHg 43%
    16:00 +28°C° 0 mm 3 m/S 764 mmHg 45%
    17:00 +28°C° 0 mm 3 m/S 764 mmHg 46%
    18:00 +26°C° 0 mm 3 m/S 764 mmHg 53%
    19:00 +24°C° 0 mm 3 m/S 764 mmHg 60%
    20:00 +21°C° 0 mm 3 m/S 763 mmHg 67%
    21:00 +20°C° 0 mm 3 m/S 763 mmHg 62%
    22:00 +19°C° 0 mm 3 m/S 763 mmHg 57%
    23:00 +17°C° 0 mm 4 m/S 763 mmHg 53%
    Mehr zeigen